Regional Weather Roundup
Issued by NWS

Home | Current Version | Previous Version | Text Only | Print | Product List | Glossary Off
Versions: 1 2 3 4 5 6 7 8 9 10 11 12 13 14 15 16 17 18 19 20 21 22 23 24 25 26 27 28 29 30 31 32 33 34 35 36 37 38 39 40 41 42 43 44 45 46 47 48 49 50

000
ASUS43 KBIS 220159
RWRND

NORTH DAKOTA REGIONAL WEATHER ROUNDUP
NATIONAL WEATHER SERVICE BISMARCK ND
800 PM CST SUN DEC 21 2014

NOTE: "FAIR" INDICATES FEW OR NO CLOUDS BELOW 12,000 FEET WITH NO
SIGNIFICANT WEATHER AND/OR OBSTRUCTIONS TO VISIBILITY.


NDZ001>003-009>011-017-220300-
NORTHWEST NORTH DAKOTA

CITY           SKY/WX    TMP DP  RH WIND       PRES   REMARKS
WILLISTON      CLOUDY    29  25  85 CALM      29.36F
MINOT          CLOUDY    30  28  92 E13       29.42S FOG     WCI  20
MINOT AFB      CLOUDY    30  30 100 SE10      29.42S FOG
$$

NDZ018>021-031>035-040>046-220300-
SOUTHWEST NORTH DAKOTA

CITY           SKY/WX    TMP DP  RH WIND       PRES   REMARKS
BISMARCK       CLOUDY    30  29  96 SE12      29.46R
GARRISON         N/A     29  26  89 E7        29.41R
HETTINGER ARPT LGT RAIN  37  35  92 SW6       29.39S
$$

NDZ004>008-012>016-024-026-027-054-220300-
NORTHEAST NORTH DAKOTA

CITY           SKY/WX    TMP DP  RH WIND       PRES   REMARKS
GRAND FORKS    CLOUDY    32  30  92 SE10      29.58S
GRND FRKS AFB  MIX PCPN  32  32 100 S10       29.57F
DEVILS LAKE    CLOUDY    28  23  80 SE13      29.49S WCI  18
$$

NDZ022-023-025-028>030-036>039-047>053-220300-
SOUTHEAST NORTH DAKOTA

CITY           SKY/WX    TMP DP  RH WIND       PRES   REMARKS
FARGO          CLOUDY    35  32  88 SE12      29.58R
JAMESTOWN      FOG       31  29  92 SE12      29.49S VSB 3/4
$$



USA.gov is the U.S. government's official web portal to all federal, state and local government web resources and services.